Regional Weather Roundup
Issued by NWS

Home | Current Version | Previous Version | Text Only | Print | Product List | Glossary On
Versions: 1 2 3 4 5 6 7 8 9 10 11 12 13 14 15 16 17 18 19 20 21 22 23 24 25 26 27 28 29 30 31 32 33 34 35 36 37 38 39 40 41 42 43 44 45 46 47 48 49 50
000
ASUS43 KDTX 212010
RWRMI
MICHIGAN HOURLY REGIONAL WEATHER ROUNDUP
NATIONAL WEATHER SERVICE DETROIT/PONTIAC MI
ISSUED BY NATIONAL WEATHER SERVICE GRAND RAPIDS MI
400 PM EDT FRI JUL 21 2017

NOTE: "FAIR" INDICATES FEW OR NO CLOUDS BELOW 12,000 FEET WITH NO
SIGNIFICANT WEATHER AND/OR OBSTRUCTION TO VISIBILITY.

MIZ047>049-052>055-059>063-066>070-074>076-081>083-212100-
SOUTHEAST LOWER MICHIGAN

CITY           SKY/WX    TMP DP  RH WIND       PRES   REMARKS
ADRIAN         CLOUDY    86  67  52 CALM      29.98F
ALMA           CLOUDY    87  65  47 S6        29.96F
ANN ARBOR      CLOUDY    87  68  52 S5        29.97F HX  90
BAD AXE        MOSUNNY   84  62  47 W7        29.97S
DETROIT CITY   CLOUDY    83  62  49 SE7       29.97S
DETROIT        CLOUDY    86  67  52 SE5       29.97F
FLINT          PTSUNNY   85  63  47 SW7       29.97F
GROSSE ILE     PTSUNNY   82  73  72 S8        29.96S
HILLSDALE      CLOUDY    86  64  48 W3        30.00S
HOWELL         CLOUDY    85  64  49 SW7       29.98F

CITY           SKY/WX    TMP DP  RH WIND       PRES   REMARKS
JACKSON        MOSUNNY   87  63  44 VRB6      29.98F
LANSING        PTSUNNY   85  65  51 VRB6      29.97F
MASON          MOSUNNY   84  65  53 CALM      29.99S
MONROE         MOSUNNY   85  67  54 CALM      29.96S
MT. CLEMENS    CLOUDY    84  65  52 SE6       29.95F
PONTIAC        CLOUDY    86  63  45 VRB3      29.97S
PORT HOPE        N/A     75  65  70 E10       29.96F
PORT HURON     CLOUDY    84  64  51 CALM      29.97S
TRI CITIES     MOSUNNY   86  67  52 SW7       29.96F
YPSILANTI      CLOUDY    89  65  44 N5        29.97F HX  91
$$
MIZ043>046-050>051-056>058-064>065-071>073-077>080-212100-
SOUTHWEST LOWER MICHIGAN

CITY           SKY/WX    TMP DP  RH WIND       PRES   REMARKS
BATTLE CREEK   MOSUNNY   86  66  51 W7        29.99F
BENTON HARBOR  SUNNY     88  62  41 CALM      29.97S
BIG RAPIDS     MOSUNNY   89  55  31 W8        29.96S
COLDWATER      MOSUNNY   86  64  46 CALM      29.99S
HOLLAND        CLOUDY    81  72  74 W5        29.97F
GRAND RAPIDS   CLOUDY    85  69  58 S7        29.97F
KALAMAZOO      SUNNY     87  63  44 SW7       29.98F
MARSHALL       MOSUNNY   85  67  53 S3        29.99S
MOUNT PLEASANT MOSUNNY   90  60  36 NW3       29.94F HX  90
MUSKEGON       CLOUDY    82  70  66 VRB6      29.97F
STURGIS        MOSUNNY   85  70  60 W8        29.98F HX  90
$$
MIZ016>042-212100-
NORTHERN LOWER MICHIGAN

CITY           SKY/WX    TMP DP  RH WIND       PRES   REMARKS
ALPENA         CLOUDY    80  66  62 E13       29.95F
BEAVER ISLAND  CLOUDY    81  63  54 W5        29.95F
BELLAIRE       PTSUNNY   83  59  44 NW3       29.96S
CADILLAC       MOSUNNY   86  61  42 W8        29.98F
CHARLEVOIX     CLOUDY    78  65  65 W5        29.99F
GAYLORD        CLOUDY    83  57  41 W9        29.99S
HOUGHTON LAKE  PTSUNNY   85  58  39 W7        29.98F
MANISTEE       MOSUNNY   81  65  58 W8        29.97R
OSCODA         CLOUDY    82  59  45 SE9       29.94F
PELLSTON       CLOUDY    83  62  49 W8        29.96F
TRAVERSE CITY  CLOUDY    83  64  52 NE10      29.95S
LUDINGTON      CLOUDY    76  70  82 SW6       29.96F
$$
MIZ007>008-015-212100-
EASTERN UPPER MICHIGAN

CITY           SKY/WX    TMP DP  RH WIND       PRES   REMARKS
KINROSS        PTSUNNY   78  63  59 N9        29.96S
MACKINAC ISLAN PTSUNNY   77  65  65 W6        29.96F
NEWBERRY       MOSUNNY   78  62  57 W6        29.95F HAZE
S. S. MARIE    SUNNY     80  56  43 NW9       29.95S
$$
MIZ004>006-011>014-085-212100-
CENTRAL UPPER MICHIGAN

CITY           SKY/WX    TMP DP  RH WIND       PRES   REMARKS
MANISTIQUE     CLOUDY    77  68  74 S5        29.94S
ESCANABA       MOSUNNY   80  68  66 S10       29.94S
MENOMINEE      MOSUNNY   85  65  51 SW6       29.94F
SAWYER-GWINN   SUNNY    N/A N/A N/A NE10        N/A
$$
MIZ001>003-009>011-084-212100-
WESTERN UPPER MICHIGAN

CITY           SKY/WX    TMP DP  RH WIND       PRES   REMARKS
IRON MOUNTAIN  CLOUDY    85  63  47 SW7       29.94F
HOUGHTON       CLOUDY    77  61  57 E6        29.93F
COPPER HARBOR    N/A     65  54  67 CALM      29.94F
IRONWOOD       CLOUDY    82  67  60 S8        29.92F
$$

ABBREVIATIONS USED IN REMARKS
   TC - TEMPERATURE IN CELSIUS
  WCI - WIND CHILL INDEX
   HX - HEAT INDEX
  VSB - VISIBILITY





USA.gov is the U.S. government's official web portal to all federal, state and local government web resources and services.